Tracking 29933 objects as of 2-Dec-2024
HD Live streaming from Space Station
objects crossing your sky now

STARLINK-6202

Track STARLINK-6202 now!
10-day predictions
STARLINK-6202 is classified as:


NORAD ID: 56896
Int'l Code: 2023-083W
Perigee: 565.2 km
Apogee: 567.2 km
Inclination: 43.0 °
Period: 95.8 minutes
Semi major axis: 6937 km
RCS: Unknown
Launch date: June 12, 2023
Source: United States (US)
Launch site: AIR FORCE EASTERN TEST RANGE (AFETR)
Your satellite tracking list
Your tracking list is empty




NASA's NSSDC Master Catalog

Two Line Element Set (TLE):
1 56896U 23083W   24337.00147387  .00001129  00000-0  98676-4 0  9992
2 56896  43.0025  75.5845 0001431 281.2692  78.7990 15.02530945 81275
Source of the keplerian elements: AFSPC